Date String (YYYY-MM-DD hh:mm:ss) UTC,Instrument flags,absolute air pressure of the measurement (hPa),sample flow rate (lpm),inlet stack bypass flow (lpm),air temperature of the measurement (°C),ambient temperature measured by the external sensor (°C),aerosol sample conditioner tube jacket temperature (°C),OPC LED temperature (°C),internal box temperature (°C),relative humidity of the measurement (%),span deviation,mass concentration of particles derived from Lorenz-Mie calculation of OPC scattering (μg/m³),mass concentration of particles derived from Lorenz-Mie calculation of OPC scattering (μg/m³),mass concentration of particles derived from Lorenz-Mie calculation of OPC scattering (μg/m³)
DateTimeUTC,F1_M11,P_M11,Q1_M11,Q2_M11,T1_M11,T2_M11,T3_M11,T4_M11,T5_M11,U1_M11,ZSPAN_M11,X2_M11,X0_M11,X1_M11
2024-04-22 10:00:00,SystemResetWarning,0825.0,4.99,000.00,023.8,022.9,000.0,032.3,025.5,012.1,0000.0,0002.42,0006.78,0001.66
2024-04-22 10:01:00,SystemResetWarning,0825.0,5.00,000.00,023.8,022.9,000.0,032.3,025.5,012.8,0000.0,0002.44,0008.00,0001.67
2024-04-22 10:02:00,SystemResetWarning,0825.0,5.00,000.00,023.8,022.9,000.0,032.3,025.5,012.9,0000.0,0002.52,0008.29,0001.68
2024-04-22 10:03:00,SystemResetWarning,0824.9,5.00,000.00,023.8,022.9,000.0,032.3,025.5,012.7,0000.0,0002.55,0008.40,0001.68
2024-04-22 10:04:00,SystemResetWarning,0824.9,5.00,000.00,023.8,022.9,000.0,032.3,025.5,012.7,0000.0,0002.59,0009.22,0001.69
2024-04-22 10:05:00,SystemResetWarning,0825.0,5.00,000.00,023.8,022.9,000.0,032.3,025.5,012.4,0000.0,0002.62,0009.56,0001.71
2024-04-22 10:06:00,SystemResetWarning,0825.0,5.00,000.00,023.8,022.9,000.0,032.3,025.5,012.5,0000.0,0002.66,0009.60,0001.71
2024-04-22 10:07:00,SystemResetWarning,0824.9,5.00,000.00,023.8,022.9,000.0,032.3,025.5,012.5,0000.0,0002.67,0009.61,0001.72
2024-04-22 10:08:00,SystemResetWarning,0824.9,5.00,000.00,023.8,022.9,000.0,032.3,025.5,012.5,0000.0,0002.65,0009.61,0001.71
2024-04-22 10:09:00,SystemResetWarning,0824.9,5.00,000.00,023.8,022.9,000.0,032.3,025.5,012.6,0000.0,0002.60,0008.61,0001.70
2024-04-22 10:10:00,SystemResetWarning,0824.9,5.00,000.00,023.8,022.9,000.0,032.3,025.5,012.6,0000.0,0002.61,0008.33,0001.69
2024-04-22 10:11:00,SystemResetWarning,0824.9,5.00,000.00,023.8,022.9,000.0,032.2,025.5,012.5,0000.0,0002.62,0008.39,0001.70
2024-04-22 10:12:00,SystemResetWarning,0824.9,5.00,000.00,023.8,022.9,000.0,032.2,025.5,012.6,0000.0,0002.60,0007.50,0001.70
2024-04-22 10:13:00,SystemResetWarning,0824.9,5.00,000.00,023.7,022.9,000.0,032.2,025.5,012.6,0000.0,0002.61,0007.45,0001.70
2024-04-22 10:14:00,SystemResetWarning,0824.9,4.99,000.00,023.7,022.9,000.0,032.2,025.5,012.7,0000.0,0002.55,0007.35,0001.68
2024-04-22 10:15:00,SystemResetWarning,0824.9,5.00,000.00,023.7,022.9,000.0,032.2,025.5,012.5,0000.0,0002.51,0006.02,0001.67
2024-04-22 10:16:00,SystemResetWarning,0824.9,5.01,000.00,023.8,022.9,000.0,032.2,025.5,012.6,0000.0,0002.50,0006.55,0001.66
2024-04-22 10:17:00,SystemResetWarning,0824.9,5.00,000.00,023.8,022.9,000.0,032.2,025.5,012.6,0000.0,0002.49,0006.59,0001.65
2024-04-22 10:18:00,SystemResetWarning,0824.9,5.00,000.00,023.7,022.9,000.0,032.2,025.5,012.6,0000.0,0002.50,0007.13,0001.64
2024-04-22 10:19:00,SystemResetWarning,0824.9,5.01,000.00,023.8,022.9,000.0,032.2,025.5,014.0,0000.0,0002.53,0007.39,0001.64
2024-04-22 10:20:00,SystemResetWarning,0824.9,5.00,000.00,023.8,022.9,000.0,032.2,025.5,015.2,0000.0,0002.54,0007.59,0001.65
2024-04-22 10:21:00,SystemResetWarning,0824.9,5.00,000.00,023.8,022.9,000.0,032.2,025.5,015.6,0000.0,0002.58,0007.48,0001.71
2024-04-22 10:22:00,SystemResetWarning,0824.9,5.00,000.00,023.8,023.0,000.0,032.2,025.5,015.4,0000.0,0002.61,0007.37,0001.76
2024-04-22 10:23:00,SystemResetWarning,0824.9,4.99,000.00,023.8,023.0,000.0,032.2,025.5,014.8,0000.0,0002.72,0007.42,0001.81
2024-04-22 10:24:00,SystemResetWarning,0824.9,5.00,000.00,023.8,023.0,000.0,032.2,025.5,014.8,0000.0,0002.77,0007.47,0001.86
2024-04-22 10:25:00,SystemResetWarning,0824.9,5.00,000.00,023.8,023.0,000.0,032.2,025.6,014.4,0000.0,0002.85,0007.61,0001.94
2024-04-22 10:26:00,SystemResetWarning,0824.9,5.00,000.00,023.8,023.1,000.0,032.2,025.6,014.2,0000.0,0002.93,0007.65,0001.99
2024-04-22 10:27:00,SystemResetWarning,0824.9,5.00,000.00,023.8,023.1,000.0,032.3,025.6,014.4,0000.0,0002.97,0006.92,0002.02
2024-04-22 10:28:00,SystemResetWarning,0824.9,5.00,000.00,023.8,023.1,000.0,032.3,025.6,014.6,0000.0,0002.99,0006.83,0002.06
2024-04-22 10:29:00,SystemResetWarning,0824.9,5.00,000.00,023.8,023.1,000.0,032.3,025.6,014.0,0000.0,0003.05,0006.34,0002.11
2024-04-22 10:30:00,SystemResetWarning,0824.9,5.00,000.00,023.8,023.1,000.0,032.3,025.6,013.9,0000.0,0003.06,0006.27,0002.15
2024-04-22 10:31:00,SystemResetWarning,0824.8,5.00,000.00,023.9,023.1,000.0,032.3,025.6,014.0,0000.0,0003.07,0006.48,0002.18
2024-04-22 10:32:00,SystemResetWarning,0824.9,5.00,000.00,023.9,023.2,000.0,032.3,025.6,014.0,0000.0,0003.06,0007.36,0002.17
2024-04-22 10:33:00,SystemResetWarning,0824.8,5.01,000.00,023.9,023.2,000.0,032.3,025.6,013.8,0000.0,0003.06,0007.67,0002.15
2024-04-22 10:34:00,SystemResetWarning,0824.9,5.01,000.00,023.9,023.2,000.0,032.3,025.7,013.7,0000.0,0002.98,0007.52,0002.12
2024-04-22 10:35:00,SystemResetWarning,0824.9,5.00,000.00,023.9,023.2,000.0,032.3,025.7,013.8,0000.0,0002.98,0007.40,0002.10
2024-04-22 10:36:00,SystemResetWarning,0824.9,5.00,000.00,023.9,023.2,000.0,032.3,025.7,013.7,0000.0,0003.05,0007.57,0002.09
2024-04-22 10:37:00,SystemResetWarning,0824.9,5.00,000.00,023.9,023.2,000.0,032.3,025.7,013.8,0000.0,0003.09,0007.68,0002.07
2024-04-22 10:38:00,SystemResetWarning,0824.7,4.99,000.00,023.9,023.2,000.0,032.3,025.7,013.9,0000.0,0003.04,0007.64,0002.06
2024-04-22 10:39:00,SystemResetWarning,0824.8,5.00,000.00,023.9,023.2,000.0,032.3,025.7,013.9,0000.0,0003.05,0008.05,0002.05
2024-04-22 10:40:00,SystemResetWarning,0824.7,5.00,000.00,023.9,023.2,000.0,032.3,025.7,013.7,0000.0,0003.04,0008.18,0002.04
2024-04-22 10:41:00,SystemResetWarning,0824.8,5.01,000.00,023.9,023.2,000.0,032.3,025.7,013.8,0000.0,0003.08,0008.13,0002.02
2024-04-22 10:42:00,SystemResetWarning,0824.7,5.01,000.00,023.9,023.2,000.0,032.3,025.7,013.7,0000.0,0003.09,0007.79,0002.03
2024-04-22 10:43:00,SystemResetWarning,0824.7,5.00,000.00,023.9,023.2,000.0,032.3,025.7,013.7,0000.0,0003.10,0007.24,0002.01
2024-04-22 10:44:00,SystemResetWarning,0824.8,5.00,000.00,023.9,023.2,000.0,032.4,025.7,013.7,0000.0,0003.06,0006.97,0001.99
2024-04-22 10:45:00,SystemResetWarning,0824.7,5.00,000.00,023.9,023.2,000.0,032.4,025.7,013.7,0000.0,0003.07,0007.86,0001.99
2024-04-22 10:46:00,SystemResetWarning,0824.7,5.00,000.00,023.9,023.2,000.0,032.4,025.7,014.0,0000.0,0003.01,0008.46,0001.97
2024-04-22 10:47:00,SystemResetWarning,0824.8,4.99,000.00,024.0,023.2,000.0,032.4,025.7,014.2,0000.0,0002.92,0008.52,0001.96
2024-04-22 10:48:00,SystemResetWarning,0824.7,5.00,000.00,024.0,023.2,000.0,032.4,025.7,014.1,0000.0,0002.83,0008.50,0001.95
2024-04-22 10:49:00,SystemResetWarning,0824.7,5.00,000.00,024.0,023.2,000.0,032.4,025.7,014.4,0000.0,0002.87,0008.54,0001.94
2024-04-22 10:50:00,SystemResetWarning,0824.7,5.00,000.00,024.0,023.2,000.0,032.4,025.7,014.3,0000.0,0002.88,0008.50,0001.93
2024-04-22 10:51:00,SystemResetWarning,0824.7,5.00,000.00,024.0,023.2,000.0,032.4,025.7,014.1,0000.0,0002.86,0008.90,0001.91
2024-04-22 10:52:00,SystemResetWarning,0824.7,5.00,000.00,024.0,023.2,000.0,032.4,025.7,014.0,0000.0,0002.80,0008.95,0001.91
2024-04-22 10:53:00,SystemResetWarning,0824.7,5.01,000.00,024.0,023.2,000.0,032.4,025.7,013.9,0000.0,0002.77,0008.99,0001.89
2024-04-22 10:54:00,SystemResetWarning,0824.7,5.00,000.00,024.0,023.2,000.0,032.4,025.7,013.9,0000.0,0002.70,0008.85,0001.88
2024-04-22 10:55:00,SystemResetWarning,0824.7,5.00,000.00,024.0,023.3,000.0,032.4,025.7,014.3,0000.0,0002.74,0008.70,0001.88
2024-04-22 10:56:00,SystemResetWarning,0824.7,5.01,000.00,024.0,023.3,000.0,032.4,025.7,013.9,0000.0,0002.72,0008.05,0001.88
2024-04-22 10:57:00,SystemResetWarning,0824.7,5.01,000.00,024.0,023.3,000.0,032.4,025.8,013.7,0000.0,0002.75,0007.51,0001.89
2024-04-22 10:58:00,SystemResetWarning,0824.7,4.99,000.00,024.0,023.3,000.0,032.4,025.8,013.6,0000.0,0002.77,0007.32,0001.89
2024-04-22 10:59:00,SystemResetWarning,0824.7,4.99,000.00,024.0,023.3,000.0,032.4,025.7,013.7,0000.0,0002.80,0007.47,0001.89
